Cheboygan, MI

10:11 AM EDT on May 27, 2017 (GMT -0400)
Cheboygan

Weather History for KSLH - March, 2013

Change the Weather History Date:

Saturday, March 9, 2013

  Actual Average (KMCD) Record (KMCD)
Temperature  
Mean Temperature 29 °F -  
Max Temperature 42 °F 27 °F 51 °F (2016)
Min Temperature 16 °F 14 °F -5 °F (2003)
Degree Days  
Heating Degree Days 36    
Moisture  
Dew Point 24 °F    
Average Humidity 79    
Maximum Humidity 98    
Minimum Humidity 50    
Precipitation  
Precipitation 0.00 in - - ()
Sea Level Pressure  
Sea Level Pressure 30.19 in    
Wind  
Wind Speed 3 mph (SE)    
Max Wind Speed 13 mph    
Max Gust Speed 20 mph    
Visibility 9 miles    
Events Snow    
Averages and records for this station are not official NWS values.
T = Trace of Precipitation, MM = Missing Value Source: NWS Daily Summary

Daily Weather History Graph

Daily Weather History Graph

Search for Another Location

Airport or City:

Trip Planner

Search our weather history database for the weather conditions in past years. The results will help you decide how hot, cold, wet, or windy it might be!

Date:

Astronomy

Mar. 09, 2013 Rise Set
Actual Time 7:01 AM EST 6:36 PM EST
Civil Twilight 6:31 AM EST 7:05 PM EST
Nautical Twilight 5:57 AM EST 7:40 PM EST
Astronomical Twilight 5:22 AM EST 8:15 PM EST
Moon 5:30 AM EST (3/9) 4:33 PM EST (3/9)
Length of Visible Light 12h 33m
Length of Day
11h 34m
Waning Crescent, 5% of the Moon is Illuminated
Mar 9
Waning Crescent
Mar 11
New
Mar 19
First Quarter
Mar 27
Full
Apr 3
Last Quarter

Hourly Weather History & Observations

Time (EST) Temp. Windchill Dew Point Humidity Pressure Visibility Wind Dir Wind Speed Gust Speed Precip Events Conditions
12:15 AM 20.8 °F - 20.1 °F 97% 30.36 in 10.0 mi Calm Calm - N/A   Clear
12:35 AM 20.3 °F - 19.8 °F 98% 30.35 in 10.0 mi Calm Calm - N/A   Clear
12:55 AM 19.4 °F - 18.9 °F 98% 30.34 in 10.0 mi Calm Calm - N/A   Clear
1:15 AM 19.2 °F - 18.1 °F 96% 30.33 in 10.0 mi Calm Calm - N/A   Clear
1:34 AM 19.2 °F - 18.3 °F 96% 30.34 in 7.0 mi Calm Calm - N/A   Clear
1:55 AM 19.9 °F - 19.0 °F 96% 30.34 in 10.0 mi Calm Calm - N/A   Clear
2:15 AM 19.4 °F - 18.5 °F 96% 30.33 in 7.0 mi Calm Calm - N/A   Clear
2:35 AM 20.8 °F - 20.1 °F 97% 30.33 in 7.0 mi Calm Calm - N/A   Clear
2:55 AM 20.1 °F - 19.4 °F 97% 30.33 in 7.0 mi Calm Calm - N/A   Clear
3:15 AM 19.8 °F - 19.0 °F 97% 30.32 in 7.0 mi Calm Calm - N/A   Clear
3:35 AM 19.6 °F - 18.9 °F 97% 30.31 in 10.0 mi Calm Calm - N/A   Clear
3:55 AM 20.1 °F - 19.2 °F 96% 30.31 in 10.0 mi Calm Calm - N/A   Clear
4:15 AM 20.3 °F - 19.6 °F 97% 30.30 in 7.0 mi Calm Calm - N/A   Clear
4:35 AM 20.1 °F - 18.7 °F 94% 30.30 in 10.0 mi Calm Calm - N/A   Clear
4:55 AM 18.1 °F - 17.4 °F 97% 30.30 in 7.0 mi Calm Calm - N/A   Clear
5:15 AM 18.5 °F - 17.6 °F 96% 30.30 in 7.0 mi Calm Calm - N/A   Clear
5:35 AM 16.7 °F - 15.4 °F 95% 30.30 in 10.0 mi Calm Calm - N/A   Clear
5:55 AM 16.7 °F - 15.6 °F 96% 30.30 in 10.0 mi Calm Calm - N/A   Clear
6:14 AM 17.4 °F - 16.3 °F 96% 30.30 in 10.0 mi Calm Calm - N/A   Clear
6:35 AM 18.1 °F - 17.2 °F 96% 30.31 in 10.0 mi Calm Calm - N/A   Clear
6:55 AM 19.4 °F - 18.3 °F 96% 30.30 in 10.0 mi Calm Calm - N/A   Clear
7:15 AM 18.1 °F - 17.2 °F 96% 30.30 in 7.0 mi Calm Calm - N/A   Clear
7:35 AM 19.2 °F 14.1 °F 18.1 °F 96% 30.29 in 10.0 mi SSE 3.5 mph - N/A   Clear
7:55 AM 21.7 °F 17.0 °F 20.7 °F 96% 30.29 in 10.0 mi SSE 3.5 mph - N/A   Clear
8:15 AM 22.8 °F 16.7 °F 21.7 °F 96% 30.30 in 10.0 mi SSE 4.6 mph - N/A   Clear
8:35 AM 23.5 °F 17.6 °F 22.3 °F 95% 30.29 in 10.0 mi SSE 4.6 mph - N/A   Clear
8:55 AM 25.9 °F 19.2 °F 23.4 °F 90% 30.28 in 10.0 mi SSE 5.8 mph - N/A   Clear
9:15 AM 27.5 °F 22.2 °F 23.7 °F 86% 30.28 in 10.0 mi SSE 4.6 mph - N/A   Clear
9:35 AM 28.8 °F 25.0 °F 23.7 °F 81% 30.28 in 10.0 mi South 3.5 mph - N/A   Clear
9:55 AM 30.9 °F 25.2 °F 23.5 °F 74% 30.26 in 10.0 mi SSE 5.8 mph - N/A   Clear
10:15 AM 32.4 °F 26.9 °F 23.2 °F 69% 30.25 in 10.0 mi SSE 5.8 mph - N/A   Clear
10:35 AM 34.3 °F 29.2 °F 23.0 °F 63% 30.25 in 10.0 mi South 5.8 mph - N/A   Clear
10:55 AM 36.0 °F 32.1 °F 23.2 °F 60% 30.24 in 10.0 mi SSE 4.6 mph - N/A   Clear
11:15 AM 37.2 °F 31.9 °F 23.5 °F 58% 30.23 in 10.0 mi SSE 6.9 mph - N/A   Clear
11:35 AM 38.5 °F 34.1 °F 23.0 °F 54% 30.23 in 10.0 mi South 5.8 mph - N/A   Clear
11:55 AM 39.6 °F - 23.5 °F 53% 30.23 in 10.0 mi Calm Calm - N/A   Clear
12:15 PM 40.1 °F 36.9 °F 23.5 °F 52% 30.23 in 10.0 mi SE 4.6 mph - N/A   Clear
12:35 PM 40.8 °F 38.8 °F 23.4 °F 50% 30.22 in 10.0 mi ESE 3.5 mph - N/A   Clear
12:55 PM 41.2 °F 37.3 °F 23.5 °F 50% 30.21 in 10.0 mi East 5.8 mph - N/A   Clear
1:15 PM 37.2 °F 30.6 °F 27.3 °F 67% 30.20 in 10.0 mi ENE 9.2 mph - N/A   Scattered Clouds
1:34 PM 36.7 °F 30.5 °F 28.0 °F 71% 30.19 in 10.0 mi ENE 8.1 mph - N/A   Scattered Clouds
1:55 PM 36.5 °F 31.8 °F 28.9 °F 74% 30.17 in 10.0 mi East 5.8 mph - N/A   Scattered Clouds
2:15 PM 37.0 °F 34.5 °F 29.7 °F 75% 30.15 in 10.0 mi ENE 3.5 mph - N/A   Mostly Cloudy
2:34 PM 36.7 °F - 30.4 °F 78% 30.14 in 10.0 mi Calm Calm - N/A   Mostly Cloudy
2:55 PM 37.8 °F - 29.7 °F 73% 30.15 in 10.0 mi Calm Calm - N/A   Overcast
3:15 PM 39.9 °F - 28.4 °F 63% 30.14 in 10.0 mi Calm Calm - N/A   Overcast
3:35 PM 41.9 °F 36.3 °F 25.9 °F 53% 30.12 in 10.0 mi ESE 9.2 mph - N/A   Overcast
3:55 PM 42.1 °F 37.1 °F 26.1 °F 53% 30.12 in 10.0 mi ESE 8.1 mph - N/A   Overcast
4:15 PM 42.3 °F 36.3 °F 25.5 °F 52% 30.10 in 10.0 mi SE 10.4 mph - N/A   Overcast
4:35 PM 41.9 °F 37.5 °F 25.3 °F 52% 30.10 in 10.0 mi SE 6.9 mph - N/A   Overcast
4:55 PM 41.0 °F 33.9 °F 25.3 °F 54% 30.08 in 10.0 mi ESE 12.7 mph 19.6 mph N/A   Overcast
5:15 PM 41.4 °F 35.7 °F 24.8 °F 52% 30.07 in 10.0 mi SE 9.2 mph - N/A   Overcast
5:35 PM 40.6 °F 34.3 °F 25.3 °F 54% 30.07 in 10.0 mi SE 10.4 mph 16.1 mph N/A   Overcast
5:55 PM 40.3 °F 33.4 °F 24.6 °F 54% 30.05 in 10.0 mi SE 11.5 mph - N/A   Overcast
6:14 PM 40.1 °F 34.7 °F 24.6 °F 54% 30.06 in 10.0 mi SE 8.1 mph - N/A   Overcast
6:35 PM 39.6 °F 34.0 °F 25.0 °F 56% 30.05 in 10.0 mi SE 8.1 mph - N/A   Overcast
6:54 PM 38.7 °F 31.8 °F 25.7 °F 60% 30.04 in 10.0 mi ESE 10.4 mph - N/A   Overcast
7:15 PM 38.3 °F 31.9 °F 26.2 °F 62% 30.04 in 10.0 mi SE 9.2 mph - N/A   Overcast
7:35 PM 37.4 °F 30.3 °F 27.3 °F 67% 30.04 in 10.0 mi SE 10.4 mph - N/A   Overcast
7:54 PM 37.4 °F 31.4 °F 27.5 °F 67% 30.04 in 10.0 mi SE 8.1 mph - N/A   Overcast
8:15 PM 36.7 °F 30.5 °F 28.0 °F 71% 30.03 in 10.0 mi SE 8.1 mph - N/A   Overcast
8:35 PM 36.5 °F 30.3 °F 28.4 °F 72% 30.03 in 10.0 mi ESE 8.1 mph - N/A   Overcast
8:55 PM 36.1 °F 28.7 °F 28.4 °F 73% 30.03 in 10.0 mi SE 10.4 mph - N/A   Overcast
9:15 PM 36.0 °F 28.5 °F 28.6 °F 75% 30.03 in 10.0 mi SE 10.4 mph - N/A   Overcast
9:34 PM 35.6 °F 28.0 °F 29.3 °F 78% 30.03 in 7.0 mi SE 10.4 mph - N/A   Overcast
9:55 PM 34.7 °F 28.1 °F 30.4 °F 84% 30.03 in 4.0 mi SE 8.1 mph - N/A Snow Light Snow
10:15 PM 33.8 °F 26.4 °F 31.3 °F 90% 30.03 in 3.0 mi ESE 9.2 mph - N/A Snow Light Snow
10:35 PM 33.4 °F 25.9 °F 32.0 °F 94% 30.01 in 3.0 mi SE 9.2 mph - N/A Snow Light Snow
10:55 PM 33.4 °F 26.6 °F 32.0 °F 94% 30.03 in 3.0 mi SE 8.1 mph - N/A Snow Light Snow
11:15 PM 33.4 °F 25.4 °F 32.2 °F 95% 30.01 in 4.0 mi SE 10.4 mph - N/A Snow Light Snow
11:35 PM 33.1 °F 26.1 °F 32.0 °F 96% 29.99 in 2.5 mi SE 8.1 mph - N/A Snow Light Snow
11:55 PM 32.9 °F 25.9 °F 32.0 °F 96% 29.98 in 1.8 mi SE 8.1 mph - N/A Snow Light Snow